[[{"header":{"parameterUnit":"m.s-1","parameterCategory":1,"la1":30.2991,"la2":30.254,"lo1":-89.0895,"lo2":-89.0444,"dy":0.0017,"dx":0.0017,"nx":28,"ny":28,"refTime":"2024-07-06T03:00:00:Z","depth":0,"parameterNumber":2,"parameterNumberName":"U-component_of_WINDS"},"data":[0,0,0,0,0,0,0,0,0,0,0,0,0,0,0,0,0,0,0,0,0,0,0,0,0,0,0,0,0,0,0,0,0,0,0,0,0,0,0,0,0,0,0,0,0,0,0,0,0,0,0,0,0,0,0,0,0,0,0.132,0.1322,0,0.1475,0.1476,0.1478,0.153,0.1529,0.1528,0.1528,0.1694,0.1699,0.1704,0,0,0,0,0,0,0,0,0,0,0,0,0,0.1078,0.1082,0.132,0.1322,0.1324,0.1474,0.1477,0.1479,0.153,0.1529,0.1528,0.1527,0.1692,0.1698,0.1704,0,0,0,0,0,0,0,0,0,0,0,0,0,0.1203,0.1083,0.132,0.1367,0.1373,0.1474,0.1477,0.1479,0.153,0.1529,0.1528,0.1527,0.169,0.1698,0.1705,0.1772,0,0,0.1728,0.1732,0,0,0,0,0,0,0,0,0.1196,0.1212,0.1358,0.1364,0.1371,0.1482,0.1452,0.1578,0.153,0.1471,0.1528,0.1527,0.1625,0.1638,0.1669,0.178,0.1787,0.1729,0.1734,0.1737,0.1739,0,0,0,0,0,0,0,0.1187,0.1205,0.1381,0.136,0.1368,0.1384,0.1401,0.1476,0.1552,0.1476,0.148,0.1497,0.1628,0.1662,0.1673,0.179,0.1729,0.1736,0.174,0.1743,0.1968,0.1969,0,0,0,0,0,0,0.1169,0.1198,0.1376,0.1386,0.1279,0.1389,0.1408,0.1447,0.1551,0.1566,0.1498,0.1499,0.1649,0.1664,0.1679,0.1768,0.1737,0.1744,0.1748,0.1966,0.1968,0.197,0,0,0,0,0,0,0.1164,0.1185,0.137,0.1293,0.1318,0.1394,0.1438,0.1451,0.1485,0.1567,0.1582,0.1518,0.1649,0.1669,0.1749,0.1774,0.1747,0.1754,0.1965,0.1967,0.1969,0.1943,0,0,0,0,0,0,0.1157,0.1182,0.1206,0.1293,0.1322,0.1435,0.144,0.1455,0.1497,0.1499,0.159,0.1604,0.165,0.1738,0.1757,0.1784,0.176,0.1963,0.1966,0.1968,0.1942,0.1944,0.1946,0,0,0,0,0,0.1148,0.1194,0.1207,0.1228,0.1353,0.1436,0.1453,0.1502,0.1498,0.1525,0.1579,0.1601,0.1767,0.1745,0.1767,0.1797,0.1962,0.1965,0.1968,0.1941,0.1944,0.1945,0,0,0,0,0,0,0.111,0.1206,0.1222,0.1297,0.1357,0.1444,0.1479,0.1502,0.1567,0.1567,0.1628,0.1648,0.1725,0.1769,0.1742,0.187,0.1866,0.1874,0.1838,0.1841,0.1843,0.1832,0.1766,0,0,0,0,0,0.111,0.1166,0.1248,0.1307,0.1336,0.1402,0.144,0.1472,0.1539,0.1566,0.1625,0.1691,0.1759,0.1802,0.1868,0.1948,0.1971,0.198,0.1981,0.1982,0.199,0.2039,0.2045,0.198,0.198,0.198,0,0,0.1111,0.1171,0.1203,0.1301,0.1351,0.1412,0.1423,0.1486,0.1533,0.1576,0.1656,0.1702,0.178,0.1861,0.1899,0.19,0.2012,0.1987,0.1987,0.1994,0.2043,0.2049,0.2054,0.1982,0.1982,0.1981,0,0,0.1145,0.1194,0.125,0.13,0.1376,0.142,0.1433,0.1517,0.1549,0.1629,0.1664,0.1722,0.1835,0.1891,0.1933,0.199,0.2015,0.201,0.202,0.2068,0.2073,0.2078,0.2102,0.2109,0.2016,0.2016,0.2016,0,0.1138,0.1228,0.1276,0.1337,0.1381,0.142,0.148,0.1527,0.1622,0.1653,0.1651,0.1797,0.1852,0.1948,0.1962,0.1994,0.2014,0.2001,0.2067,0.2073,0.2078,0.2102,0.211,0.2015,0.2015,0.2015,0.2015,0,0.1217,0.1279,0.1315,0.1404,0.1452,0.1511,0.1572,0.1615,0.1643,0.1688,0.1772,0.1839,0.1921,0.1946,0.1975,0.2048,0.2046,0.2055,0.2053,0.2083,0.2106,0.2115,0.2014,0.2014,0.2014,0.2014,0,0,0.1232,0.1347,0.136,0.1402,0.149,0.1541,0.1604,0.1682,0.1719,0.1784,0.1841,0.1937,0.1947,0.1995,0.2031,0.2072,0.2117,0.2077,0.208,0.2085,0.2206,0.2201,0.221,0.2133,0.2135,0.2136,0.22,0,0.128,0.1392,0.1438,0.153,0.159,0.1629,0.1685,0.1747,0.1791,0.1851,0.1901,0.1969,0.1974,0.2005,0.2047,0.2102,0.2143,0.2098,0.2191,0.2194,0.2173,0.2222,0.2216,0.2273,0.2209,0.2211,0.2212,0,0.135,0.1414,0.1511,0.1594,0.1621,0.167,0.1747,0.1802,0.1875,0.1905,0.1959,0.1993,0.2065,0.2056,0.2158,0.2127,0.2167,0.2201,0.2204,0.2218,0.2207,0.224,0.2292,0.2302,0.2226,0.2225,0.2224,0,0.1356,0.1466,0.1539,0.1574,0.1671,0.1705,0.1748,0.1819,0.1864,0.1932,0.1963,0.2039,0.2082,0.2142,0.2197,0.2184,0.2295,0.229,0.2325,0.2324,0.2349,0.2347,0.2413,0.2369,0.2369,0.2369,0.2369,0,0.1406,0.1465,0.1543,0.1588,0.1657,0.1711,0.1778,0.1824,0.1887,0.1945,0.1984,0.2038,0.2106,0.217,0.2213,0.2293,0.2311,0.234,0.2352,0.2339,0.2336,0.2369,0.2368,0.2371,0.2371,0.237,0.237,0,0.1424,0.1478,0.1561,0.1647,0.167,0.1717,0.1792,0.184,0.1885,0.1959,0.1979,0.2052,0.213,0.219,0.2291,0.232,0.2406,0.2417,0.2381,0.2388,0.2421,0.2419,0.2513,0.253,0.2471,0.2472,0.2472,0,0.1453,0.15,0.159,0.1631,0.1673,0.1737,0.1783,0.1839,0.1886,0.1973,0.2011,0.2091,0.2158,0.228,0.2345,0.2423,0.2438,0.2466,0.2451,0.2437,0.2444,0.2441,0.2448,0.2469,0.2469,0.2469,0.2469,0,0.1502,0.1527,0.159,0.1664,0.1718,0.1779,0.1842,0.1873,0.1941,0.1993,0.2071,0.2123,0.2226,0.2306,0.2391,0.2439,0.2468,0.2473,0.2487,0.2475,0.2454,0.247,0.239,0.2472,0.2472,0.2471,0.2471,0.2471,0.1529,0.1574,0.1644,0.1715,0.1768,0.1826,0.1876,0.1927,0.1993,0.208,0.211,0.2192,0.2267,0.2384,0.2432,0.25,0.2501,0.2519,0.2525,0.2529,0.253,0.244,0.2515,0.2515,0.2515,0.2515,0.2515,0,0.1583,0.163,0.1694,0.178,0.1837,0.1855,0.1926,0.1973,0.2044,0.211,0.2175,0.2268,0.2346,0.2417,0.2499,0.254,0.2556,0.2561,0.256,0.2572,0.2522,0.2504,0.2547,0.2547,0.2547,0.2547,0.2547,0.2547,0.1617,0.1694,0.1728,0.1833,0.1881,0.196,0.2,0.2055,0.2108,0.2209,0.2274,0.2318,0.2388,0.2476,0.2551,0.257,0.26,0.2603,0.2625,0.2578,0.2574,0.2571,0.2555,0.2608,0.2608,0.267,0.2671,0.2671]},{"header":{"parameterUnit":"m.s-1","parameterCategory":1,"la1":30.2991,"la2":30.254,"lo1":-89.0895,"lo2":-89.0444,"dy":0.0017,"dx":0.0017,"nx":28,"ny":28,"refTime":"2024-07-06T03:00:00:Z","depth":0,"parameterNumber":3,"parameterNumberName":"V-component_of_WINDS"},"data":[0,0,0,0,0,0,0,0,0,0,0,0,0,0,0,0,0,0,0,0,0,0,0,0,0,0,0,0,0,0,0,0,0,0,0,0,0,0,0,0,0,0,0,0,0,0,0,0,0,0,0,0,0,0,0,0,0,0,1.8774,1.8774,0,1.873,1.873,1.8729,1.8696,1.8696,1.8695,1.8695,1.8652,1.8651,1.865,0,0,0,0,0,0,0,0,0,0,0,0,0,1.8834,1.8833,1.8774,1.8774,1.8773,1.873,1.873,1.8729,1.8696,1.8696,1.8695,1.8695,1.8652,1.8651,1.865,0,0,0,0,0,0,0,0,0,0,0,0,0,1.8801,1.8833,1.8774,1.8752,1.8749,1.873,1.873,1.8729,1.8696,1.8696,1.8695,1.8695,1.8652,1.8651,1.865,1.8651,0,0,1.8646,1.8645,0,0,0,0,0,0,0,0,1.8803,1.8799,1.8755,1.8753,1.875,1.8718,1.8735,1.8703,1.8696,1.8716,1.8695,1.8695,1.8674,1.8671,1.8664,1.8649,1.8647,1.8646,1.8645,1.8644,1.8644,0,0,0,0,0,0,0,1.8805,1.88,1.8757,1.8755,1.8752,1.8745,1.8739,1.8728,1.8698,1.8714,1.8712,1.8707,1.8673,1.8665,1.8663,1.8646,1.8646,1.8645,1.8644,1.8643,1.8633,1.8634,0,0,0,0,0,0,1.881,1.8802,1.8758,1.8755,1.8776,1.8744,1.8738,1.8729,1.8698,1.8693,1.8708,1.8706,1.8668,1.8664,1.8661,1.8662,1.8644,1.8643,1.8642,1.8633,1.8633,1.8634,0,0,0,0,0,0,1.8812,1.8807,1.876,1.8778,1.8772,1.8743,1.8733,1.8728,1.8721,1.8693,1.8688,1.8705,1.8667,1.8663,1.8654,1.866,1.8643,1.8641,1.8632,1.8633,1.8633,1.8663,0,0,0,0,0,0,1.8814,1.8807,1.8806,1.8778,1.8771,1.8753,1.8734,1.8728,1.8718,1.8715,1.8689,1.8685,1.8667,1.8656,1.8653,1.8658,1.864,1.8631,1.8632,1.8633,1.8661,1.8665,1.8667,0,0,0,0,0,1.8816,1.8816,1.8807,1.8801,1.8769,1.8753,1.8749,1.8727,1.8719,1.8718,1.8701,1.8686,1.866,1.8656,1.8652,1.8656,1.8631,1.8632,1.8633,1.866,1.8664,1.8667,0,0,0,0,0,0,1.8845,1.8812,1.8801,1.8792,1.8776,1.8747,1.8746,1.8732,1.8718,1.8716,1.8691,1.8685,1.868,1.8667,1.8663,1.8657,1.8644,1.8644,1.8665,1.8669,1.8672,1.8675,1.8639,0,0,0,0,0,1.8851,1.884,1.8812,1.8807,1.8799,1.8774,1.8766,1.8752,1.8734,1.8727,1.8709,1.8693,1.8682,1.8675,1.8662,1.866,1.8655,1.8661,1.8664,1.8667,1.8667,1.8668,1.8671,1.8638,1.8637,1.8637,0,0,1.8862,1.8843,1.8837,1.8812,1.8798,1.8789,1.8768,1.8759,1.8752,1.8725,1.8716,1.8703,1.8684,1.8679,1.8676,1.8668,1.8676,1.8668,1.867,1.867,1.8669,1.8672,1.8675,1.8638,1.8638,1.8638,0,0,1.8878,1.8861,1.8856,1.8843,1.8821,1.8805,1.8804,1.8779,1.8769,1.8759,1.874,1.8733,1.8713,1.8701,1.8692,1.8706,1.8693,1.8703,1.8719,1.872,1.8722,1.8725,1.8732,1.8734,1.8704,1.8704,1.8704,0,1.8894,1.8878,1.8855,1.8848,1.8838,1.8814,1.881,1.8798,1.8775,1.8769,1.8761,1.8738,1.8723,1.8716,1.872,1.8713,1.8713,1.8706,1.8724,1.8726,1.8727,1.8734,1.8736,1.8706,1.8706,1.8705,1.8705,0,1.8901,1.889,1.8889,1.8867,1.8858,1.8852,1.883,1.8823,1.881,1.8796,1.8788,1.877,1.8755,1.8752,1.8738,1.8744,1.874,1.8728,1.8714,1.8733,1.8738,1.8741,1.8708,1.8707,1.8707,1.8707,0,0,1.8931,1.8899,1.8899,1.889,1.8866,1.8858,1.8853,1.8838,1.8834,1.8819,1.8815,1.88,1.879,1.878,1.8765,1.8766,1.8781,1.8754,1.8753,1.8761,1.8789,1.8798,1.8802,1.8772,1.8772,1.8772,1.8791,0,1.8944,1.8931,1.8912,1.8907,1.8898,1.8877,1.8873,1.8859,1.8846,1.8838,1.8824,1.8814,1.88,1.8795,1.8794,1.8779,1.8787,1.8778,1.8769,1.8769,1.8776,1.8804,1.8814,1.8832,1.8793,1.8793,1.8793,0,1.8956,1.8943,1.8937,1.8917,1.8913,1.8909,1.8895,1.8887,1.8872,1.8863,1.8854,1.8838,1.8833,1.8821,1.8815,1.8809,1.8805,1.8798,1.8798,1.8797,1.8783,1.8805,1.8837,1.884,1.8796,1.8796,1.8796,0,1.8981,1.8962,1.8957,1.895,1.8925,1.8924,1.8913,1.8898,1.8891,1.888,1.8876,1.8864,1.8858,1.885,1.8833,1.8825,1.883,1.8815,1.8824,1.8824,1.8826,1.8826,1.8858,1.8821,1.8821,1.8821,1.8821,0,1.8997,1.8995,1.8968,1.8965,1.8962,1.8942,1.894,1.8928,1.8915,1.891,1.8891,1.8888,1.8865,1.8859,1.8846,1.8845,1.8841,1.8835,1.8832,1.8837,1.8838,1.8835,1.8833,1.8822,1.8822,1.8822,1.8822,0,1.9024,1.9006,1.8999,1.8978,1.8972,1.8972,1.8954,1.8951,1.8938,1.8933,1.893,1.891,1.8903,1.8885,1.8872,1.8864,1.8866,1.8859,1.8872,1.887,1.888,1.888,1.8912,1.8916,1.8875,1.8876,1.8876,0,1.9036,1.9034,1.9013,1.9008,1.8999,1.8992,1.8986,1.8966,1.8961,1.8945,1.8945,1.8936,1.8928,1.8918,1.8903,1.8894,1.8888,1.89,1.8886,1.8893,1.889,1.8891,1.8892,1.8903,1.8903,1.8904,1.8904,0,1.9059,1.9051,1.9042,1.9032,1.9025,1.9016,1.9005,1.9003,1.8981,1.8977,1.8969,1.8963,1.8952,1.8944,1.8934,1.8925,1.8912,1.8909,1.891,1.8916,1.8924,1.8922,1.8881,1.8908,1.8907,1.8907,1.8907,1.8907,1.9079,1.9078,1.9064,1.9056,1.9046,1.9038,1.9035,1.9022,1.9015,1.9005,1.8994,1.8988,1.8976,1.8961,1.8954,1.895,1.8943,1.8945,1.8946,1.8947,1.8951,1.8924,1.8948,1.8948,1.8948,1.8948,1.8947,0,1.9103,1.9094,1.9087,1.9073,1.9068,1.9056,1.9045,1.9042,1.9037,1.9027,1.902,1.9013,1.9006,1.8992,1.8985,1.8985,1.8979,1.8984,1.8984,1.8983,1.8956,1.8956,1.8989,1.8989,1.8989,1.8989,1.8989,1.8989,1.9115,1.9112,1.9103,1.9096,1.9087,1.9082,1.9077,1.907,1.9062,1.9055,1.905,1.904,1.9029,1.9022,1.9016,1.9012,1.9011,1.9018,1.9013,1.8988,1.8984,1.898,1.898,1.9018,1.9018,1.904,1.904,1.904]}]]